Regional Weather Roundup
Issued by NWS

Home | Current Version | Previous Version | Text Only | Print | Product List | Glossary On
Versions: 1 2 3 4 5 6 7 8 9 10 11 12 13 14 15 16 17 18 19 20 21 22 23 24 25 26 27 28 29 30 31 32 33 34 35 36 37 38 39 40 41 42 43 44 45 46 47 48 49 50
000
ASUS43 KLMK 292310
RWRKY
KENTUCKY REGIONAL WEATHER ROUNDUP
NATIONAL WEATHER SERVICE LOUISVILLE KY
600 PM EST THU JAN 29 2015

NOTE "FAIR" INDICATES FEW OR NO CLOUDS BELOW 12,000 FEET
WITH NO SIGNIFICANT WEATHER AND/OR OBSTRUCTIONS TO VISIBILITY.

KYZ001>023-026-027-061>063-070>075-300000-
WESTERN AND SOUTH CENTRAL KENTUCKY

CITY           SKY/WX    TMP DP  RH WIND       PRES   REMARKS
PADUCAH        CLOUDY    43  30  60 NW10G22   30.23R
HENDERSON      CLOUDY    39  30  70 NW15G23   30.21R WCI  31
OWENSBORO      CLOUDY    40  33  76 NW13G21   30.20R WCI  32
HOPKINSVILLE   CLOUDY    41  32  70 NW13      30.21R
BOWLING GREEN  CLOUDY    42  31  64 NW13G26   30.17R
GLASGOW        CLOUDY    41  33  72 NW14G21   30.15R
$$

KYZ024-025-028>034-038-045-046-053-300000-
NORTH CENTRAL KENTUCKY

CITY           SKY/WX    TMP DP  RH WIND       PRES   REMARKS
LOUISVILLE/SDF CLOUDY    39  32  76 W13       30.13R WCI  31
LOUISVILLE/LOU CLOUDY    38  33  82 W9        30.13R HAZE    WCI  31
FORT KNOX      CLOUDY    38  31  74 W13       30.12R WCI  31
$$

KYZ035>037-039>044-047>052-055>060-089>105-300000-
NORTHEAST KENTUCKY

CITY           SKY/WX    TMP DP  RH WIND       PRES   REMARKS
LEXINGTON      CLOUDY    39  32  76 NW12G28   30.07R WCI  32
COVINGTON      DRIZZLE   35  31  85 W21G26    30.05R FOG     WCI  24
FRANKFORT      CLOUDY    38  32  79 W13G26    30.08R WCI  30
$$

KYZ054-064>069-076>088-106>120-300000-
SOUTHEAST KENTUCKY

CITY           SKY/WX    TMP DP  RH WIND       PRES   REMARKS
JACKSON        CLOUDY    46  36  68 W9G30     29.98R
LONDON         CLOUDY    50  37  61 NW21      30.01R
SOMERSET       CLOUDY    43  34  70 NW16G25   30.09R
MIDDLESBORO    CLOUDY    52  35  52 S5        30.01R
MONTICELLO     CLOUDY    46  38  74 NW13      30.10R
$$



USA.gov is the U.S. government's official web portal to all federal, state and local government web resources and services.